Regional Weather Roundup
Issued by NWS Newport/Morehead, NC

Home | Current Version | Previous Version | Text Only | Print | Product List | Glossary On
Versions: 1 2 3 4 5 6 7 8 9 10 11 12 13 14 15 16 17 18 19 20 21 22 23 24 25 26 27 28 29 30 31 32 33 34 35 36 37 38 39 40 41 42 43 44 45 46 47 48 49 50
000
ASUS42 KMHX 190310
RWRMHX
WEATHER ROUNDUP FOR EASTERN NORTH CAROLINA
NATIONAL WEATHER SERVICE NEWPORT/MOREHEAD CITY NC
1100 PM EDT FRI APR 18 2014

NOTE: "FAIR" INDICATES FEW OR NO CLOUDS BELOW 12,000 FEET
WITH NO SIGNIFICANT WEATHER AND/OR OBSTRUCTIONS TO VISIBILITY

NCZ015>017-031-032-045>047-102-103-190400-
NORTH COAST

CITY           SKY/WX    TMP DP  RH WIND       PRES   REMARKS
EDENTON        CLOUDY    47  42  82 CALM      30.31R
ELIZABETH CITY CLOUDY    48  43  82 NE6       30.29S
KITTY HAWK     CLOUDY    47  45  93 NE10G16   30.25S
MANTEO         CLOUDY    47  45  93 NE13      30.25F

$$

NCZ045>047-081-094-103-104-190400-
CENTRAL COAST

CITY           SKY/WX    TMP DP  RH WIND       PRES   REMARKS
FRISCO         LGT RAIN  51  49  92 NE12G20   30.24R FOG
SWANQUARTER      N/A     48 N/A N/A N3        30.24R

$$

NCZ095-097-098-100-101-190400-
SOUTHERN COAST

CITY           SKY/WX    TMP DP  RH WIND       PRES   REMARKS
BEAUFORT       LGT RAIN  52  50  93 N12       30.22S
CEDAR ISLAND     N/A     54 N/A N/A N20G25    30.27S
JACKSONVILLE   LGT RAIN  52  51  97 NE17      30.22F
NEWPORT          N/A     50  48  93 N9          N/A
PINEY ISLAND   CLOUDY    54  51  90 N13       30.24S
WILMINGTON     LGT RAIN  54  51  90 NE15      30.17F


$$

NCZ011>013-027>030-043-044-078>080-089-090>093-098-190400-
COASTAL PLAIN

CITY           SKY/WX    TMP DP  RH WIND       PRES   REMARKS
AHOSKIE        CLOUDY    48  41  75 CALM      30.32R
CLINTON        HVY RAIN  54  54 100 NE5       30.22F
ELIZABETHTOWN  HVY RAIN  54  54 100 NE5       30.19F
GOLDSBORO      LGT RAIN  54  53  97 NE8       30.23F
GREENVILLE     CLOUDY    52  43  71 E6        30.29F
HAVELOCK       RAIN      51  46  83 N15       30.25R
KENANSVILLE    LGT RAIN  51  50  93 N5        30.23F
KINSTON        RAIN      51  48  89 NE7       30.26F
NEW BERN       RAIN      51  47  86 NE10      30.27S FOG
RICHLANDS      CLOUDY    52 N/A N/A NE14      30.24F
ROANOKE RAPIDS NOT AVBL
ROCKY MOUNT    LGT RAIN  52  46  80 CALM      30.28S
WASHINGTON     CLOUDY    50  45  83 NE7       30.29S
WHITEVILLE     RAIN      55  53  94 NE8       30.16F

$$

AMZ130-135-150-152-154-156-158-170-250-252-270-ANZ085-086-088-633-658-670-190400-
MARINE OBSERVATIONS

STATION/POSITION TIME  TEMP    WIND        PRES    WAVE   SWELL
                       AIR SEA DIR/SP/G            HT/PER HT/PER
                 (UTC) (F)     (DEG/KT/KT) (MB)    (FT/S) (FT/S)
CHESAPEAKE LIGHT 0200   45      60/ 12/ 13 1027.0
BUOY 44014       0300   49 49   30/ 16/ 17 1024.2    7/ 9   5/ 9
DUCK             0300   47 51   30/ 17/ 18 1023.4
2E DUCK          0300      48                N/A     6/10   2/12
OREGON INLET     0300   47 52   10/ 13/ 17 1024.0
BUOY 44095       0300      48                N/A     7/11   3/11
HATTERAS CG      0300   51 56   40/ 11/ 14 1023.8
DIAMOND BUOY     NOT AVBL
CAPE LOOKOUT     0200   54      20/ 18/ 22 1022.8
BEAUFORT LAB     0300   53 59   10/ 13/ 18 1022.7
30 SE NEW RIVER  0300   57 65   20/ 21/ 27 1021.9    7/ 6   2/10
5 SE WRIGHTSVILL 0200   56 59   40/ 23/ 25 1022.1
FRYING PAN BUOY  0300   59 65   50/ 27/ 33 1017.9    8/ 7   3/12
BUOY 41001       NOT AVBL
BUOY 41002       NOT AVBL
BUOY 41004       NOT AVBL

$$



USA.gov is the U.S. government's official web portal to all federal, state and local government web resources and services.